Total_Precipitation_Accumulation
0.15 0.30 0.54 0.78 0.95 1.30 1.22 0.86 0.53 0.35 0.26 0.19 0.15 0.14 0.12 0.10 0.10 0.11 0.10 0.10 0.10 0.11 0.10 0.08 0.08 0.06 0.06 0.06 0.04 0.04 0.03 0.02 0.01 0.01 0.01 0.01 0.01 0.01 0.01 0.01 0.01 0.00 0.01
0.14 0.23 0.40 0.52 0.54 0.61 0.71 0.72 0.68 0.53 0.40 0.35 0.30 0.28 0.24 0.21 0.21 0.22 0.22 0.22 0.21 0.19 0.15 0.14 0.12 0.10 0.08 0.06 0.05 0.03 0.02 0.01 0.01 0.01 0.01 0.00 0.00 0.00 0.00 0.00 0.00 0.00 0.00
0.08 0.16 0.22 0.30 0.39 0.50 0.64 0.66 0.61 0.53 0.47 0.44 0.39 0.37 0.33 0.32 0.32 0.34 0.34 0.29 0.24 0.22 0.19 0.15 0.12 0.09 0.06 0.04 0.03 0.02 0.02 0.01 0.01 0.01 0.02 0.02 0.01 0.00 0.00 0.00 0.00 0.00 0.00
0.04 0.09 0.14 0.19 0.30 0.47 0.56 0.54 0.51 0.50 0.52 0.53 0.51 0.48 0.46 0.42 0.40 0.39 0.36 0.28 0.21 0.17 0.12 0.09 0.07 0.05 0.03 0.02 0.01 0.01 0.01 0.02 0.01 0.01 0.02 0.02 0.03 0.04 0.02 0.01 0.00 0.00 0.00
0.03 0.06 0.11 0.17 0.29 0.41 0.49 0.50 0.49 0.55 0.60 0.61 0.59 0.57 0.54 0.45 0.40 0.34 0.27 0.21 0.15 0.10 0.06 0.05 0.04 0.03 0.02 0.02 0.02 0.02 0.02 0.02 0.02 0.02 0.02 0.02 0.02 0.04 0.06 0.03 0.01 0.00 0.00
0.03 0.07 0.11 0.16 0.24 0.33 0.41 0.43 0.45 0.50 0.52 0.55 0.59 0.56 0.48 0.39 0.30 0.22 0.17 0.12 0.08 0.05 0.04 0.03 0.03 0.02 0.02 0.02 0.03 0.03 0.03 0.03 0.04 0.03 0.03 0.04 0.05 0.05 0.07 0.06 0.02 0.01 0.00
0.05 0.08 0.11 0.14 0.19 0.27 0.35 0.37 0.37 0.37 0.37 0.36 0.32 0.29 0.25 0.20 0.17 0.13 0.11 0.08 0.05 0.04 0.04 0.03 0.02 0.02 0.02 0.02 0.02 0.02 0.03 0.03 0.04 0.05 0.05 0.05 0.06 0.06 0.08 0.09 0.06 0.04 0.01
0.07 0.11 0.14 0.17 0.22 0.27 0.29 0.28 0.24 0.20 0.17 0.16 0.17 0.16 0.14 0.12 0.11 0.09 0.08 0.06 0.04 0.03 0.02 0.02 0.02 0.02 0.01 0.01 0.02 0.03 0.03 0.05 0.06 0.05 0.07 0.07 0.06 0.07 0.10 0.14 0.16 0.14 0.07
0.11 0.16 0.20 0.25 0.28 0.28 0.26 0.20 0.14 0.10 0.09 0.09 0.09 0.08 0.07 0.09 0.08 0.07 0.05 0.03 0.02 0.01 0.01 0.01 0.02 0.02 0.02 0.03 0.05 0.06 0.06 0.08 0.08 0.08 0.08 0.09 0.09 0.10 0.12 0.16 0.24 0.29 0.22
0.18 0.24 0.27 0.27 0.25 0.20 0.17 0.13 0.11 0.09 0.08 0.07 0.06 0.06 0.06 0.06 0.05 0.04 0.03 0.03 0.03 0.02 0.02 0.02 0.03 0.03 0.04 0.06 0.08 0.08 0.08 0.09 0.09 0.10 0.10 0.10 0.10 0.10 0.11 0.13 0.17 0.26 0.32
0.28 0.28 0.27 0.22 0.17 0.13 0.11 0.10 0.08 0.07 0.07 0.06 0.05 0.05 0.05 0.05 0.04 0.04 0.04 0.04 0.03 0.03 0.03 0.04 0.04 0.05 0.07 0.08 0.10 0.10 0.09 0.09 0.09 0.09 0.09 0.10 0.11 0.13 0.13 0.15 0.19 0.23 0.33
0.29 0.27 0.24 0.20 0.15 0.11 0.08 0.07 0.08 0.08 0.07 0.06 0.05 0.05 0.05 0.05 0.05 0.04 0.04 0.05 0.05 0.05 0.05 0.06 0.07 0.08 0.08 0.10 0.11 0.10 0.09 0.10 0.10 0.11 0.13 0.13 0.13 0.14 0.15 0.19 0.22 0.26 0.35
0.35 0.31 0.22 0.17 0.13 0.10 0.09 0.10 0.11 0.10 0.08 0.07 0.06 0.05 0.05 0.06 0.06 0.06 0.07 0.07 0.07 0.08 0.09 0.10 0.11 0.10 0.10 0.10 0.10 0.11 0.10 0.10 0.11 0.13 0.15 0.15 0.18 0.19 0.22 0.29 0.33 0.35 0.40
0.36 0.26 0.19 0.16 0.14 0.14 0.15 0.14 0.14 0.12 0.10 0.08 0.07 0.07 0.08 0.09 0.09 0.09 0.10 0.10 0.11 0.12 0.13 0.12 0.12 0.11 0.10 0.09 0.08 0.07 0.07 0.09 0.11 0.15 0.19 0.22 0.27 0.30 0.34 0.36 0.35 0.39 0.44
0.31 0.28 0.26 0.24 0.21 0.19 0.17 0.16 0.15 0.12 0.10 0.09 0.09 0.10 0.12 0.13 0.13 0.14 0.14 0.14 0.15 0.14 0.14 0.13 0.11 0.10 0.08 0.05 0.03 0.03 0.05 0.09 0.12 0.15 0.17 0.22 0.30 0.35 0.34 0.32 0.32 0.40 0.49
0.31 0.33 0.32 0.28 0.25 0.23 0.21 0.20 0.19 0.18 0.17 0.18 0.19 0.18 0.17 0.17 0.17 0.17 0.17 0.19 0.18 0.16 0.13 0.11 0.08 0.07 0.04 0.04 0.05 0.05 0.06 0.11 0.15 0.18 0.17 0.16 0.19 0.19 0.20 0.27 0.32 0.40 0.54
0.33 0.32 0.28 0.26 0.28 0.30 0.32 0.35 0.35 0.33 0.32 0.31 0.28 0.25 0.22 0.21 0.19 0.18 0.20 0.19 0.15 0.11 0.09 0.07 0.04 0.04 0.04 0.03 0.04 0.05 0.07 0.12 0.18 0.20 0.18 0.13 0.09 0.12 0.15 0.21 0.27 0.35 0.51
0.28 0.26 0.25 0.29 0.36 0.44 0.47 0.45 0.41 0.38 0.36 0.34 0.31 0.25 0.20 0.17 0.18 0.19 0.17 0.12 0.09 0.08 0.06 0.05 0.03 0.04 0.03 0.02 0.02 0.03 0.05 0.10 0.14 0.16 0.15 0.14 0.10 0.14 0.21 0.23 0.24 0.30 0.43
0.22 0.25 0.30 0.39 0.49 0.53 0.50 0.46 0.42 0.37 0.34 0.29 0.23 0.16 0.13 0.13 0.12 0.10 0.09 0.08 0.08 0.07 0.05 0.03 0.02 0.03 0.03 0.02 0.01 0.02 0.03 0.06 0.09 0.10 0.10 0.09 0.10 0.17 0.31 0.37 0.42 0.50 0.63
0.21 0.31 0.43 0.52 0.54 0.50 0.43 0.39 0.35 0.28 0.23 0.17 0.14 0.11 0.10 0.07 0.05 0.05 0.07 0.07 0.07 0.06 0.04 0.02 0.02 0.03 0.04 0.01 0.00 0.01 0.03 0.04 0.05 0.05 0.06 0.10 0.14 0.23 0.40 0.52 0.60 0.68 0.83
0.30 0.40 0.47 0.47 0.42 0.36 0.30 0.28 0.23 0.18 0.13 0.09 0.08 0.06 0.04 0.02 0.02 0.03 0.05 0.05 0.04 0.03 0.02 0.02 0.03 0.03 0.03 0.01 0.00 0.00 0.01 0.03 0.04 0.05 0.09 0.16 0.23 0.31 0.50 0.67 0.70 0.86 0.99
0.36 0.37 0.36 0.32 0.26 0.19 0.17 0.15 0.12 0.08 0.05 0.04 0.03 0.02 0.01 0.01 0.01 0.02 0.03 0.02 0.02 0.02 0.01 0.02 0.02 0.02 0.03 0.02 0.01 0.00 0.01 0.03 0.06 0.12 0.18 0.28 0.34 0.39 0.58 0.72 0.90 1.12 1.18
0.32 0.28 0.23 0.17 0.12 0.09 0.09 0.08 0.05 0.03 0.03 0.03 0.03 0.01 0.01 0.01 0.01 0.02 0.02 0.01 0.01 0.01 0.01 0.02 0.02 0.03 0.03 0.02 0.01 0.01 0.01 0.03 0.08 0.17 0.29 0.36 0.39 0.52 0.74 0.98 1.16 1.23 1.12
0.23 0.16 0.11 0.08 0.06 0.04 0.03 0.02 0.01 0.01 0.02 0.02 0.02 0.01 0.01 0.01 0.01 0.01 0.01 0.01 0.01 0.01 0.02 0.03 0.03 0.04 0.04 0.03 0.03 0.03 0.03 0.05 0.08 0.16 0.29 0.41 0.49 0.63 0.87 1.06 1.16 1.14 1.04
0.10 0.07 0.05 0.03 0.02 0.01 0.01 0.01 0.01 0.01 0.01 0.01 0.01 0.01 0.01 0.01 0.01 0.01 0.00 0.01 0.01 0.01 0.02 0.04 0.05 0.07 0.06 0.04 0.05 0.07 0.07 0.08 0.11 0.18 0.23 0.31 0.44 0.62 0.80 0.94 1.01 0.98 0.91
0.05 0.04 0.03 0.02 0.01 0.01 0.00 0.00 0.00 0.01 0.01 0.01 0.01 0.01 0.00 0.01 0.01 0.01 0.02 0.01 0.00 0.01 0.01 0.02 0.04 0.04 0.04 0.04 0.04 0.06 0.08 0.12 0.17 0.20 0.23 0.33 0.47 0.66 0.82 0.92 0.93 0.85 0.77